This is the latest recevied weather packets stored in our database for station/object M0TUM-1. If no packets are shown the sender has not sent any weather packets the latest 1 day(s).
| Time | Temp. | Humidity | Pressure | Rain* | Wind** | Luminosity | Snow |
|---|---|---|---|---|---|---|---|
| 1778071605 | 10° C | 83% | 1013.1 hPa | 0 mm | - | 54 W/m² | - |
| 1778069790 | 10° C | 85% | 1012.7 hPa | 0 mm | - | 147 W/m² | - |
| 1778068580 | 10° C | 86% | 1012.7 hPa | 0 mm | - | 172 W/m² | - |
| 1778066462 | 9.44° C | 87% | 1012.8 hPa | 0 mm | - | 118 W/m² | - |
| 1778065554 | 10° C | 87% | 1012.7 hPa | 3.05 mm | - | 111 W/m² | - |
| 1778065251 | 10° C | 87% | 1012.7 hPa | 3.05 mm | - | 106 W/m² | - |
| 1778064947 | 9.44° C | 87% | 1012.9 hPa | 3.05 mm | - | 129 W/m² | - |
| 1778064644 | 8.89° C | 87% | 1013 hPa | 1.27 mm | - | 120 W/m² | - |
| 1778064040 | 9.44° C | 87% | 1012.9 hPa | 1.78 mm | - | 124 W/m² | - |
| 1778063737 | 9.44° C | 86% | 1012.7 hPa | 1.27 mm | - | 154 W/m² | - |
| 1778062223 | 9.44° C | 85% | 1012.8 hPa | 1.78 mm | - | 139 W/m² | - |
| 1778061921 | 10° C | 84% | 1012.7 hPa | 0 mm | - | 140 W/m² | - |
| 1778061013 | 10° C | 83% | 1012.4 hPa | 0 mm | - | 170 W/m² | - |
| 1778060409 | 10° C | 83% | 1012.4 hPa | 0 mm | - | 123 W/m² | - |
| 1778060107 | 10° C | 83% | 1012 hPa | 0 mm | - | 189 W/m² | - |
| 1778059198 | 10° C | 84% | 1012.5 hPa | 0 mm | - | 200 W/m² | - |
| 1778057381 | 9.44° C | 87% | 1012.3 hPa | 0 mm | - | 127 W/m² | - |
| 1778057078 | 10° C | 87% | 1012.2 hPa | 0 mm | - | 146 W/m² | - |
| 1778056472 | 10° C | 88% | 1012.2 hPa | 0 mm | - | 454 W/m² | - |
| 1778055561 | 9.44° C | 88% | 1012.1 hPa | 1.78 mm | - | 162 W/m² | - |
| 1778055260 | 9.44° C | 88% | 1012.1 hPa | 1.78 mm | - | 149 W/m² | - |
| 1778054653 | 9.44° C | 88% | 1012.1 hPa | 0 mm | - | 432 W/m² | - |
| 1778054351 | 9.44° C | 88% | 1012.1 hPa | 0 mm | - | 150 W/m² | - |
| 1778053745 | 8.89° C | 88% | 1011.9 hPa | 0 mm | - | 79 W/m² | - |
| 1778052837 | 8.89° C | 88% | 1011.8 hPa | 3.05 mm | - | 93 W/m² | - |
* Rain latest hour (hover to see other rain measurements)
** Current wind speed in m/s (hover to see current wind gust speed)